Time,TemperatureF,DewpointF,PressureIn,WindDirection,WindDirectionDegrees,WindSpeedMPH,WindSpeedGustMPH,Humidity,HourlyPrecipIn,Conditions,Clouds,dailyrainin,SoftwareType,DateUTC
2013-03-13 00:01:00,46.2,7.4,30.33,WNW,294,5.8,5.8,20,-99.99,,---,-99.99,VWS V14.01,2013-03-13 07:01:00,
2013-03-13 00:06:00,46.2,7.4,30.33,NNW,334,0.0,4.9,20,-99.99,,---,-99.99,VWS V14.01,2013-03-13 07:06:00,
2013-03-13 00:11:00,46.4,6.4,30.33,NW,312,0.0,0.0,19,-99.99,,---,-99.99,VWS V14.01,2013-03-13 07:11:00,
2013-03-13 00:16:00,46.4,6.4,30.33,NW,319,0.0,0.0,19,-99.99,,---,-99.99,VWS V14.01,2013-03-13 07:16:00,
2013-03-13 00:21:00,46.4,6.4,30.33,NW,325,0.0,0.0,19,-99.99,,---,-99.99,VWS V14.01,2013-03-13 07:21:00,
2013-03-13 00:26:00,46.0,7.2,30.33,NW,312,0.0,0.0,20,-99.99,,---,-99.99,VWS V14.01,2013-03-13 07:26:00,
2013-03-13 00:31:00,46.2,7.4,30.33,NNW,330,0.0,0.0,20,-99.99,,---,-99.99,VWS V14.01,2013-03-13 07:31:00,
2013-03-13 00:37:00,46.2,7.4,30.33,NNW,330,0.0,0.0,20,-99.99,,---,-99.99,VWS V14.01,2013-03-13 07:37:00,
2013-03-13 00:42:00,46.2,7.4,30.33,NW,326,0.0,0.0,20,-99.99,,---,-99.99,VWS V14.01,2013-03-13 07:42:00,
2013-03-13 00:47:00,46.2,7.4,30.33,NNW,332,0.0,0.0,20,-99.99,,---,-99.99,VWS V14.01,2013-03-13 07:47:00,
2013-03-13 00:52:00,46.2,7.4,30.33,NNW,338,0.0,0.0,20,-99.99,,---,-99.99,VWS V14.01,2013-03-13 07:52:00,
2013-03-13 00:57:00,46.2,7.4,30.33,NNW,344,0.0,0.0,20,-99.99,,---,-99.99,VWS V14.01,2013-03-13 07:57:00,
2013-03-13 01:02:00,46.6,6.5,30.33,NNW,329,0.0,0.0,19,-99.99,,---,-99.99,VWS V14.01,2013-03-13 08:02:00,
2013-03-13 01:07:00,46.6,6.5,30.33,NNW,341,0.0,0.0,19,-99.99,,---,-99.99,VWS V14.01,2013-03-13 08:07:00,
2013-03-13 01:12:00,46.4,6.4,30.33,NNW,341,0.0,0.0,19,-99.99,,---,-99.99,VWS V14.01,2013-03-13 08:12:00,
2013-03-13 01:17:00,46.6,6.5,30.33,NNW,342,0.0,0.0,19,-99.99,,---,-99.99,VWS V14.01,2013-03-13 08:17:00,
2013-03-13 01:22:00,46.6,6.5,30.33,NNW,340,0.0,0.0,19,-99.99,,---,-99.99,VWS V14.01,2013-03-13 08:22:00,
2013-03-13 01:27:00,46.9,6.8,30.33,NNW,337,0.0,0.0,19,-99.99,,---,-99.99,VWS V14.01,2013-03-13 08:27:00,
2013-03-13 01:32:00,46.9,6.8,30.33,NNW,338,0.0,0.0,19,-99.99,,---,-99.99,VWS V14.01,2013-03-13 08:32:00,
2013-03-13 01:37:00,46.9,6.8,30.33,NNW,333,0.0,0.0,19,-99.99,,---,-99.99,VWS V14.01,2013-03-13 08:37:00,
2013-03-13 01:42:00,46.9,6.8,30.33,NNW,340,0.0,0.0,19,-99.99,,---,-99.99,VWS V14.01,2013-03-13 08:42:00,
2013-03-13 01:47:00,47.1,7.0,30.33,NNW,340,0.0,0.0,19,-99.99,,---,-99.99,VWS V14.01,2013-03-13 08:47:00,
2013-03-13 01:52:00,46.8,6.7,30.33,NNW,329,0.0,0.0,19,-99.99,,---,-99.99,VWS V14.01,2013-03-13 08:52:00,
2013-03-13 01:57:00,46.8,6.7,30.33,NW,323,0.0,0.0,19,-99.99,,---,-99.99,VWS V14.01,2013-03-13 08:57:00,
2013-03-13 02:02:00,46.9,6.8,30.33,NW,325,0.0,0.0,19,-99.99,,---,-99.99,VWS V14.01,2013-03-13 09:02:00,
2013-03-13 02:07:00,46.9,6.8,30.33,NW,323,0.0,0.0,19,-99.99,,---,-99.99,VWS V14.01,2013-03-13 09:07:00,
2013-03-13 02:12:00,47.3,7.1,30.33,NNW,332,0.0,0.0,19,-99.99,,---,-99.99,VWS V14.01,2013-03-13 09:12:00,
2013-03-13 02:17:00,47.7,7.4,30.33,NNW,332,0.0,0.0,19,-99.99,,---,-99.99,VWS V14.01,2013-03-13 09:17:00,
2013-03-13 02:22:00,48.0,7.7,30.33,NNW,332,0.0,0.0,19,-99.99,,---,-99.99,VWS V14.01,2013-03-13 09:22:00,
2013-03-13 02:27:00,48.2,7.9,30.33,NW,312,0.0,0.0,19,-99.99,,---,-99.99,VWS V14.01,2013-03-13 09:27:00,
2013-03-13 02:32:00,48.2,7.9,30.33,NW,312,0.0,0.0,19,-99.99,,---,-99.99,VWS V14.01,2013-03-13 09:32:00,
2013-03-13 02:37:00,48.4,8.0,30.33,NW,321,0.0,0.0,19,-99.99,,---,-99.99,VWS V14.01,2013-03-13 09:37:00,
2013-03-13 02:42:00,48.2,7.9,30.33,NNW,327,0.0,0.0,19,-99.99,,---,-99.99,VWS V14.01,2013-03-13 09:42:00,
2013-03-13 02:47:00,48.2,7.9,30.33,NNW,330,0.0,0.0,19,-99.99,,---,-99.99,VWS V14.01,2013-03-13 09:47:00,
2013-03-13 02:52:00,47.8,7.6,30.33,NNW,334,0.0,0.0,19,-99.99,,---,-99.99,VWS V14.01,2013-03-13 09:52:00,
2013-03-13 02:57:00,47.8,7.6,30.33,NNW,334,0.0,0.0,19,-99.99,,---,-99.99,VWS V14.01,2013-03-13 09:57:00,
2013-03-13 03:02:00,47.8,7.6,30.33,NNW,335,0.0,0.0,19,-99.99,,---,-99.99,VWS V14.01,2013-03-13 10:02:00,
2013-03-13 03:07:00,47.8,7.6,30.33,North,353,0.0,0.0,19,-99.99,,---,-99.99,VWS V14.01,2013-03-13 10:07:00,
2013-03-13 03:12:00,48.2,7.9,30.33,North,0,0.0,0.0,19,-99.99,,---,-99.99,VWS V14.01,2013-03-13 10:12:00,
2013-03-13 03:17:00,48.4,8.0,30.33,North,0,0.0,0.0,19,-99.99,,---,-99.99,VWS V14.01,2013-03-13 10:17:00,
2013-03-13 03:22:00,48.4,8.0,30.33,North,0,0.0,0.0,19,-99.99,,---,-99.99,VWS V14.01,2013-03-13 10:22:00,
2013-03-13 03:27:00,48.2,7.9,30.33,NNW,337,0.0,0.0,19,-99.99,,---,-99.99,VWS V14.01,2013-03-13 10:27:00,
2013-03-13 03:32:00,48.2,7.9,30.33,NNW,328,0.0,0.0,19,-99.99,,---,-99.99,VWS V14.01,2013-03-13 10:32:00,
2013-03-13 03:37:00,47.8,7.6,30.33,NW,322,0.0,0.0,19,-99.99,,---,-99.99,VWS V14.01,2013-03-13 10:37:00,
2013-03-13 03:42:00,47.8,7.6,30.33,NW,304,0.0,0.0,19,-99.99,,---,-99.99,VWS V14.01,2013-03-13 10:42:00,
2013-03-13 03:47:00,48.2,7.9,30.33,NW,304,0.0,0.0,19,-99.99,,---,-99.99,VWS V14.01,2013-03-13 10:47:00,
2013-03-13 03:52:00,48.0,7.7,30.33,NNW,343,0.0,0.0,19,-99.99,,---,-99.99,VWS V14.01,2013-03-13 10:52:00,
2013-03-13 03:57:00,48.0,7.7,30.33,NNW,343,0.0,0.0,19,-99.99,,---,-99.99,VWS V14.01,2013-03-13 10:57:00,
2013-03-13 04:02:00,47.7,7.4,30.33,NNW,339,0.0,0.0,19,-99.99,,---,-99.99,VWS V14.01,2013-03-13 11:02:00,
2013-03-13 04:07:00,47.7,7.4,30.33,North,353,0.0,0.0,19,-99.99,,---,-99.99,VWS V14.01,2013-03-13 11:07:00,
2013-03-13 04:12:00,48.2,7.9,30.33,North,353,0.0,0.0,19,-99.99,,---,-99.99,VWS V14.01,2013-03-13 11:12:00,
2013-03-13 04:17:00,48.7,8.3,30.33,North,2,0.0,0.0,19,-99.99,,---,-99.99,VWS V14.01,2013-03-13 11:17:00,
2013-03-13 04:22:00,48.7,8.3,30.33,North,2,0.0,0.0,19,-99.99,,---,-99.99,VWS V14.01,2013-03-13 11:22:00,
2013-03-13 04:27:00,48.7,8.3,30.33,North,6,0.0,0.0,19,-99.99,,---,-99.99,VWS V14.01,2013-03-13 11:27:00,
2013-03-13 04:33:00,48.7,8.3,30.33,North,357,0.0,0.0,19,-99.99,,---,-99.99,VWS V14.01,2013-03-13 11:33:00,
2013-03-13 04:38:00,49.1,8.6,30.33,North,357,0.0,0.0,19,-99.99,,---,-99.99,VWS V14.01,2013-03-13 11:38:00,
2013-03-13 04:43:00,49.1,8.6,30.33,North,6,0.0,0.0,19,-99.99,,---,-99.99,VWS V14.01,2013-03-13 11:43:00,
2013-03-13 04:48:00,49.3,8.8,30.33,North,6,0.0,0.0,19,-99.99,,---,-99.99,VWS V14.01,2013-03-13 11:48:00,
2013-03-13 04:53:00,48.9,8.5,30.33,NNE,17,0.0,0.0,19,-99.99,,---,-99.99,VWS V14.01,2013-03-13 11:53:00,
2013-03-13 04:58:00,48.9,8.5,30.33,NNE,17,0.0,0.0,19,-99.99,,---,-99.99,VWS V14.01,2013-03-13 11:58:00,
2013-03-13 05:03:00,48.9,8.5,30.33,NNE,16,0.0,0.0,19,-99.99,,---,-99.99,VWS V14.01,2013-03-13 12:03:00,
2013-03-13 05:08:00,48.9,8.5,30.33,NNE,14,0.0,0.0,19,-99.99,,---,-99.99,VWS V14.01,2013-03-13 12:08:00,
2013-03-13 05:13:00,49.1,8.6,30.33,NNE,14,0.0,0.0,19,-99.99,,---,-99.99,VWS V14.01,2013-03-13 12:13:00,
2013-03-13 05:18:00,48.7,8.3,30.33,NNE,30,0.0,0.0,19,-99.99,,---,-99.99,VWS V14.01,2013-03-13 12:18:00,
2013-03-13 05:23:00,48.7,8.3,30.33,NNE,30,0.0,0.0,19,-99.99,,---,-99.99,VWS V14.01,2013-03-13 12:23:00,
2013-03-13 05:28:00,48.6,8.2,30.33,NNE,30,0.0,0.0,19,-99.99,,---,-99.99,VWS V14.01,2013-03-13 12:28:00,
2013-03-13 05:33:00,48.6,8.2,30.33,NNE,30,0.0,0.0,19,-99.99,,---,-99.99,VWS V14.01,2013-03-13 12:33:00,
2013-03-13 05:38:00,48.4,8.0,30.33,NNE,33,0.0,0.0,19,-99.99,,---,-99.99,VWS V14.01,2013-03-13 12:38:00,
2013-03-13 05:43:00,48.4,8.0,30.33,NE,40,0.0,0.0,19,-99.99,,---,-99.99,VWS V14.01,2013-03-13 12:43:00,
2013-03-13 05:48:00,48.4,8.0,30.33,NE,40,0.0,0.0,19,-99.99,,---,-99.99,VWS V14.01,2013-03-13 12:48:00,
2013-03-13 05:53:00,48.2,7.9,30.33,NE,43,0.0,0.0,19,-99.99,,---,-99.99,VWS V14.01,2013-03-13 12:53:00,
2013-03-13 05:58:00,48.2,7.9,30.33,NE,43,0.0,0.0,19,-99.99,,---,-99.99,VWS V14.01,2013-03-13 12:58:00,
2013-03-13 06:03:00,48.0,7.7,30.33,NE,38,0.0,0.0,19,-99.99,,---,-99.99,VWS V14.01,2013-03-13 13:03:00,
2013-03-13 06:08:00,48.0,7.7,30.33,NE,41,0.0,0.0,19,-99.99,,---,-99.99,VWS V14.01,2013-03-13 13:08:00,
2013-03-13 06:13:00,48.0,7.7,30.33,NE,41,0.0,0.0,19,-99.99,,---,-99.99,VWS V14.01,2013-03-13 13:13:00,
2013-03-13 06:18:00,48.0,7.7,30.33,NE,37,0.0,0.0,19,-99.99,,---,-99.99,VWS V14.01,2013-03-13 13:18:00,
2013-03-13 06:23:00,48.0,7.7,30.33,NE,37,0.0,0.0,19,-99.99,,---,-99.99,VWS V14.01,2013-03-13 13:23:00,
2013-03-13 06:28:00,47.8,7.6,30.33,NE,41,0.0,0.0,19,-99.99,,---,-99.99,VWS V14.01,2013-03-13 13:28:00,
2013-03-13 06:33:00,47.8,7.6,30.33,NE,41,0.0,0.0,19,-99.99,,---,-99.99,VWS V14.01,2013-03-13 13:33:00,
2013-03-13 06:38:00,48.2,7.9,30.33,NE,46,0.0,0.0,19,-99.99,,---,-99.99,VWS V14.01,2013-03-13 13:38:00,
2013-03-13 06:43:00,48.2,7.9,30.33,NE,47,0.0,0.0,19,-99.99,,---,-99.99,VWS V14.01,2013-03-13 13:43:00,
2013-03-13 06:48:00,48.4,8.0,30.33,NE,47,0.0,0.0,19,-99.99,,---,-99.99,VWS V14.01,2013-03-13 13:48:00,
2013-03-13 06:53:00,48.4,8.0,30.36,NE,47,0.0,0.0,19,-99.99,,---,-99.99,VWS V14.01,2013-03-13 13:53:00,
2013-03-13 06:58:00,48.4,8.0,30.36,NE,47,0.0,0.0,19,-99.99,,---,-99.99,VWS V14.01,2013-03-13 13:58:00,
2013-03-13 07:03:00,48.2,7.9,30.36,NE,56,0.0,0.0,19,-99.99,,---,-99.99,VWS V14.01,2013-03-13 14:03:00,
2013-03-13 07:08:00,48.2,7.9,30.36,NE,48,0.0,0.0,19,-99.99,,---,-99.99,VWS V14.01,2013-03-13 14:08:00,
2013-03-13 07:14:00,48.2,7.9,30.36,NE,48,0.0,0.0,19,-99.99,,---,-99.99,VWS V14.01,2013-03-13 14:14:00,
2013-03-13 07:19:00,49.1,8.6,30.36,NNE,30,0.0,0.0,19,-99.99,,---,-99.99,VWS V14.01,2013-03-13 14:19:00,
2013-03-13 07:24:00,49.1,8.6,30.36,NNE,30,0.0,0.0,19,-99.99,,---,-99.99,VWS V14.01,2013-03-13 14:24:00,
2013-03-13 07:29:00,50.0,9.4,30.36,NNE,28,0.0,0.0,19,-99.99,,---,-99.99,VWS V14.01,2013-03-13 14:29:00,
2013-03-13 07:34:00,50.0,9.4,30.36,NNE,27,0.0,0.0,19,-99.99,,---,-99.99,VWS V14.01,2013-03-13 14:34:00,
2013-03-13 07:39:00,50.7,10.0,30.36,NNE,27,0.0,0.0,19,-99.99,,---,-99.99,VWS V14.01,2013-03-13 14:39:00,
2013-03-13 07:44:00,50.7,10.0,30.36,NNE,29,0.0,0.0,19,-99.99,,---,-99.99,VWS V14.01,2013-03-13 14:44:00,
2013-03-13 07:49:00,51.6,10.7,30.36,NNE,29,0.0,0.0,19,-99.99,,---,-99.99,VWS V14.01,2013-03-13 14:49:00,
2013-03-13 07:54:00,52.3,10.1,30.36,NNE,21,0.0,0.0,18,-99.99,,---,-99.99,VWS V14.01,2013-03-13 14:54:00,
2013-03-13 07:59:00,52.3,10.1,30.36,NNE,21,0.0,0.0,18,-99.99,,---,-99.99,VWS V14.01,2013-03-13 14:59:00,
2013-03-13 08:04:00,53.2,10.9,30.36,NNE,22,0.0,0.0,18,-99.99,,---,-99.99,VWS V14.01,2013-03-13 15:04:00,
2013-03-13 08:09:00,53.2,10.9,30.36,NNE,23,0.0,0.0,18,-99.99,,---,-99.99,VWS V14.01,2013-03-13 15:09:00,
2013-03-13 08:14:00,54.1,11.6,30.36,NNE,23,0.0,0.0,18,-99.99,,---,-99.99,VWS V14.01,2013-03-13 15:14:00,
2013-03-13 08:19:00,54.7,12.0,30.36,NNE,21,0.0,0.0,18,-99.99,,---,-99.99,VWS V14.01,2013-03-13 15:19:00,
2013-03-13 08:24:00,54.7,12.0,30.36,NNE,21,0.0,0.0,18,-99.99,,---,-99.99,VWS V14.01,2013-03-13 15:24:00,
2013-03-13 08:29:00,55.4,11.3,30.36,North,7,0.0,0.0,17,-99.99,,---,-99.99,VWS V14.01,2013-03-13 15:29:00,
2013-03-13 08:34:00,55.4,11.3,30.36,North,7,0.0,0.0,17,-99.99,,---,-99.99,VWS V14.01,2013-03-13 15:34:00,
2013-03-13 08:39:00,55.8,11.6,30.36,NNE,25,0.0,0.0,17,-99.99,,---,-99.99,VWS V14.01,2013-03-13 15:39:00,
2013-03-13 08:44:00,55.8,11.6,30.36,NNE,31,0.0,0.0,17,-99.99,,---,-99.99,VWS V14.01,2013-03-13 15:44:00,
2013-03-13 08:49:00,56.3,12.1,30.36,NNE,31,0.0,0.0,17,-99.99,,---,-99.99,VWS V14.01,2013-03-13 15:49:00,
2013-03-13 08:54:00,56.8,12.5,30.36,NE,34,0.0,0.0,17,-99.99,,---,-99.99,VWS V14.01,2013-03-13 15:54:00,
2013-03-13 08:59:00,56.8,12.5,30.36,NE,34,0.0,0.0,17,-99.99,,---,-99.99,VWS V14.01,2013-03-13 15:59:00,
2013-03-13 09:04:00,57.4,12.9,30.36,NNE,29,0.0,0.0,17,-99.99,,---,-99.99,VWS V14.01,2013-03-13 16:04:00,
2013-03-13 09:09:00,57.4,12.9,30.33,NNE,27,0.0,0.0,17,-99.99,,---,-99.99,VWS V14.01,2013-03-13 16:09:00,
2013-03-13 09:14:00,57.9,13.4,30.33,NNE,27,0.0,0.0,17,-99.99,,---,-99.99,VWS V14.01,2013-03-13 16:14:00,
2013-03-13 09:19:00,58.3,13.7,30.33,NNE,27,0.0,0.0,17,-99.99,,---,-99.99,VWS V14.01,2013-03-13 16:19:00,
2013-03-13 09:24:00,58.3,13.7,30.33,NNE,27,0.0,0.0,17,-99.99,,---,-99.99,VWS V14.01,2013-03-13 16:24:00,
2013-03-13 09:29:00,58.8,14.1,30.33,NE,38,0.0,0.0,17,-99.99,,---,-99.99,VWS V14.01,2013-03-13 16:29:00,
2013-03-13 09:34:00,58.8,14.1,30.33,NE,38,0.0,0.0,17,-99.99,,---,-99.99,VWS V14.01,2013-03-13 16:34:00,
2013-03-13 09:39:00,59.0,14.3,30.33,NNE,21,0.0,0.0,17,-99.99,,---,-99.99,VWS V14.01,2013-03-13 16:39:00,
2013-03-13 09:44:00,59.0,14.3,30.33,NNE,26,0.0,0.0,17,-99.99,,---,-99.99,VWS V14.01,2013-03-13 16:44:00,
2013-03-13 09:49:00,59.2,14.4,30.33,NNE,26,0.0,0.0,17,-99.99,,---,-99.99,VWS V14.01,2013-03-13 16:49:00,
2013-03-13 09:54:00,59.2,14.4,30.33,NNE,28,0.0,0.0,17,-99.99,,---,-99.99,VWS V14.01,2013-03-13 16:54:00,
2013-03-13 09:59:00,59.2,14.4,30.33,NNE,28,0.0,0.0,17,-99.99,,---,-99.99,VWS V14.01,2013-03-13 16:59:00,
2013-03-13 10:04:00,59.5,14.7,30.33,North,11,0.0,0.0,17,-99.99,,---,-99.99,VWS V14.01,2013-03-13 17:04:00,
2013-03-13 10:09:00,59.5,14.7,30.36,NNE,17,0.0,0.0,17,-99.99,,---,-99.99,VWS V14.01,2013-03-13 17:09:00,
2013-03-13 10:14:00,59.7,14.9,30.36,NNE,17,0.0,0.0,17,-99.99,,---,-99.99,VWS V14.01,2013-03-13 17:14:00,
2013-03-13 10:19:00,59.7,14.9,30.36,NNE,17,0.0,0.0,17,-99.99,,---,-99.99,VWS V14.01,2013-03-13 17:19:00,
2013-03-13 10:24:00,59.9,15.0,30.36,NNE,17,0.0,0.0,17,-99.99,,---,-99.99,VWS V14.01,2013-03-13 17:24:00,
2013-03-13 10:29:00,60.1,15.1,30.36,NNE,17,0.0,0.0,17,-99.99,,---,-99.99,VWS V14.01,2013-03-13 17:29:00,
2013-03-13 10:34:00,60.1,15.1,30.36,NNE,17,0.0,0.0,17,-99.99,,---,-99.99,VWS V14.01,2013-03-13 17:34:00,
2013-03-13 10:39:00,60.4,15.4,30.36,NE,46,0.0,0.0,17,-99.99,,---,-99.99,VWS V14.01,2013-03-13 17:39:00,
2013-03-13 10:45:00,60.8,14.4,30.36,NE,46,0.0,0.0,16,-99.99,,---,-99.99,VWS V14.01,2013-03-13 17:45:00,
2013-03-13 10:50:00,60.8,14.4,30.36,NE,46,0.0,0.0,16,-99.99,,---,-99.99,VWS V14.01,2013-03-13 17:50:00,
2013-03-13 10:55:00,60.8,14.4,30.36,NE,46,0.0,0.0,16,-99.99,,---,-99.99,VWS V14.01,2013-03-13 17:55:00,
2013-03-13 11:00:00,60.8,14.4,30.36,NE,46,0.0,0.0,16,-99.99,,---,-99.99,VWS V14.01,2013-03-13 18:00:00,
2013-03-13 11:05:00,61.7,15.1,30.36,NE,46,0.0,0.0,16,-99.99,,---,-99.99,VWS V14.01,2013-03-13 18:05:00,
2013-03-13 11:10:00,61.7,15.1,30.36,NE,46,0.0,0.0,16,-99.99,,---,-99.99,VWS V14.01,2013-03-13 18:10:00,
2013-03-13 11:15:00,61.9,15.2,30.36,NE,46,0.0,0.0,16,-99.99,,---,-99.99,VWS V14.01,2013-03-13 18:15:00,
2013-03-13 11:20:00,61.9,15.2,30.36,NE,46,0.0,0.0,16,-99.99,,---,-99.99,VWS V14.01,2013-03-13 18:20:00,
2013-03-13 11:25:00,62.6,15.8,30.36,NE,46,0.0,0.0,16,-99.99,,---,-99.99,VWS V14.01,2013-03-13 18:25:00,
2013-03-13 11:30:00,62.8,15.9,30.36,NE,46,0.0,0.0,16,-99.99,,---,-99.99,VWS V14.01,2013-03-13 18:30:00,
2013-03-13 11:35:00,62.8,15.9,30.36,NE,46,0.0,0.0,16,-99.99,,---,-99.99,VWS V14.01,2013-03-13 18:35:00,
2013-03-13 11:40:00,63.0,16.1,30.33,NE,46,0.0,0.0,16,-99.99,,---,-99.99,VWS V14.01,2013-03-13 18:40:00,
2013-03-13 11:45:00,63.0,16.1,30.33,NE,46,0.0,0.0,16,-99.99,,---,-99.99,VWS V14.01,2013-03-13 18:45:00,
2013-03-13 11:50:00,63.5,16.5,30.33,NE,46,0.0,0.0,16,-99.99,,---,-99.99,VWS V14.01,2013-03-13 18:50:00,
2013-03-13 11:55:00,63.9,16.8,30.33,NE,46,0.0,0.0,16,-99.99,,---,-99.99,VWS V14.01,2013-03-13 18:55:00,
2013-03-13 12:00:00,63.9,16.8,30.33,NE,37,0.0,0.0,16,-99.99,,---,-99.99,VWS V14.01,2013-03-13 19:00:00,
2013-03-13 12:05:00,63.7,16.7,30.33,NE,37,0.0,0.0,16,-99.99,,---,-99.99,VWS V14.01,2013-03-13 19:05:00,
2013-03-13 12:10:00,63.7,16.7,30.33,NE,37,0.0,0.0,16,-99.99,,---,-99.99,VWS V14.01,2013-03-13 19:10:00,
2013-03-13 12:15:00,64.4,15.8,30.33,NE,37,0.0,0.0,15,-99.99,,---,-99.99,VWS V14.01,2013-03-13 19:15:00,
2013-03-13 12:20:00,64.4,15.8,30.33,NE,37,0.0,0.0,15,-99.99,,---,-99.99,VWS V14.01,2013-03-13 19:20:00,
2013-03-13 12:25:00,64.2,17.1,30.33,NE,37,0.0,0.0,16,-99.99,,---,-99.99,VWS V14.01,2013-03-13 19:25:00,
2013-03-13 12:30:00,64.2,17.1,30.33,NE,37,0.0,0.0,16,-99.99,,---,-99.99,VWS V14.01,2013-03-13 19:30:00,
2013-03-13 12:35:00,64.2,17.1,30.33,NE,37,0.0,0.0,16,-99.99,,---,-99.99,VWS V14.01,2013-03-13 19:35:00,
2013-03-13 12:40:00,64.8,16.1,30.33,NE,37,0.0,0.0,15,-99.99,,---,-99.99,VWS V14.01,2013-03-13 19:40:00,
2013-03-13 12:45:00,64.8,16.1,30.33,NE,37,0.0,0.0,15,-99.99,,---,-99.99,VWS V14.01,2013-03-13 19:45:00,
2013-03-13 12:50:00,65.8,16.9,30.33,NE,37,0.0,0.0,15,-99.99,,---,-99.99,VWS V14.01,2013-03-13 19:50:00,
2013-03-13 12:55:00,66.0,17.1,30.33,NE,37,0.0,0.0,15,-99.99,,---,-99.99,VWS V14.01,2013-03-13 19:55:00,
2013-03-13 13:00:00,66.0,17.1,30.33,ENE,75,9.6,9.6,15,-99.99,,---,-99.99,VWS V14.01,2013-03-13 20:00:00,
2013-03-13 13:05:00,65.5,16.6,30.33,ENE,75,9.6,9.6,15,-99.99,,---,-99.99,VWS V14.01,2013-03-13 20:05:00,
2013-03-13 13:10:00,65.5,16.6,30.33,ENE,75,9.6,9.6,15,-99.99,,---,-99.99,VWS V14.01,2013-03-13 20:10:00,
2013-03-13 13:15:00,66.2,17.2,30.33,ENE,75,9.6,9.6,15,-99.99,,---,-99.99,VWS V14.01,2013-03-13 20:15:00,
2013-03-13 13:20:00,66.2,17.2,30.33,ENE,75,9.6,9.6,15,-99.99,,---,-99.99,VWS V14.01,2013-03-13 20:20:00,
2013-03-13 13:25:00,66.6,17.5,30.33,ENE,75,9.6,9.6,15,-99.99,,---,-99.99,VWS V14.01,2013-03-13 20:25:00,
2013-03-13 13:30:00,67.1,17.9,30.33,ENE,75,9.6,9.6,15,-99.99,,---,-99.99,VWS V14.01,2013-03-13 20:30:00,
2013-03-13 13:35:00,67.1,17.9,30.33,ENE,75,9.6,9.6,15,-99.99,,---,-99.99,VWS V14.01,2013-03-13 20:35:00,
2013-03-13 13:40:00,66.9,17.8,30.33,ENE,75,9.6,9.6,15,-99.99,,---,-99.99,VWS V14.01,2013-03-13 20:40:00,
2013-03-13 13:45:00,66.9,17.8,30.33,ENE,75,9.6,9.6,15,-99.99,,---,-99.99,VWS V14.01,2013-03-13 20:45:00,
2013-03-13 13:50:00,67.1,17.9,30.33,ENE,75,9.6,9.6,15,-99.99,,---,-99.99,VWS V14.01,2013-03-13 20:50:00,
2013-03-13 13:55:00,67.1,17.9,30.33,ENE,75,9.6,9.6,15,-99.99,,---,-99.99,VWS V14.01,2013-03-13 20:55:00,
2013-03-13 14:00:00,67.5,18.2,30.33,ENE,75,9.6,9.6,15,-99.99,,---,-99.99,VWS V14.01,2013-03-13 21:00:00,
2013-03-13 14:05:00,67.3,18.1,30.33,ENE,75,9.6,9.6,15,-99.99,,---,-99.99,VWS V14.01,2013-03-13 21:05:00,
2013-03-13 14:10:00,67.3,18.1,30.33,ENE,75,9.6,9.6,15,-99.99,,---,-99.99,VWS V14.01,2013-03-13 21:10:00,
2013-03-13 14:15:00,67.6,18.4,30.33,ENE,75,9.6,9.6,15,-99.99,,---,-99.99,VWS V14.01,2013-03-13 21:15:00,
2013-03-13 14:20:00,67.6,18.4,30.33,ENE,75,9.6,9.6,15,-99.99,,---,-99.99,VWS V14.01,2013-03-13 21:20:00,
2013-03-13 14:25:00,67.5,18.2,30.33,ENE,75,9.6,9.6,15,-99.99,,---,-99.99,VWS V14.01,2013-03-13 21:25:00,
2013-03-13 14:31:00,66.9,17.8,30.33,ENE,75,9.6,9.6,15,-99.99,,---,-99.99,VWS V14.01,2013-03-13 21:31:00,
2013-03-13 14:36:00,67.3,18.1,30.33,ENE,75,9.6,9.6,15,-99.99,,---,-99.99,VWS V14.01,2013-03-13 21:36:00,
2013-03-13 14:41:00,67.5,18.2,30.33,ENE,75,9.6,9.6,15,-99.99,,---,-99.99,VWS V14.01,2013-03-13 21:41:00,
2013-03-13 14:46:00,67.3,18.1,30.33,ENE,75,9.6,9.6,15,-99.99,,---,-99.99,VWS V14.01,2013-03-13 21:46:00,
2013-03-13 14:51:00,67.3,18.1,30.33,ENE,75,9.6,9.6,15,-99.99,,---,-99.99,VWS V14.01,2013-03-13 21:51:00,
2013-03-13 14:56:00,67.3,18.1,30.33,ENE,75,9.6,9.6,15,-99.99,,---,-99.99,VWS V14.01,2013-03-13 21:56:00,
2013-03-13 15:01:00,67.5,18.2,30.33,ENE,75,9.6,9.6,15,-99.99,,---,-99.99,VWS V14.01,2013-03-13 22:01:00,
2013-03-13 15:06:00,67.5,18.2,30.30,ENE,75,9.6,9.6,15,-99.99,,---,-99.99,VWS V14.01,2013-03-13 22:06:00,
2013-03-13 15:11:00,67.5,18.2,30.30,ENE,75,9.6,9.6,15,-99.99,,---,-99.99,VWS V14.01,2013-03-13 22:11:00,
2013-03-13 15:16:00,67.1,17.9,30.30,ENE,75,9.6,9.6,15,-99.99,,---,-99.99,VWS V14.01,2013-03-13 22:16:00,
2013-03-13 15:21:00,67.3,18.1,30.30,ENE,75,9.6,9.6,15,-99.99,,---,-99.99,VWS V14.01,2013-03-13 22:21:00,
2013-03-13 15:26:00,67.3,18.1,30.30,ENE,75,9.6,9.6,15,-99.99,,---,-99.99,VWS V14.01,2013-03-13 22:26:00,
2013-03-13 15:31:00,67.6,18.4,30.30,ENE,75,9.6,9.6,15,-99.99,,---,-99.99,VWS V14.01,2013-03-13 22:31:00,
2013-03-13 15:36:00,67.6,18.4,30.30,ENE,75,9.6,9.6,15,-99.99,,---,-99.99,VWS V14.01,2013-03-13 22:36:00,
2013-03-13 15:41:00,67.8,18.5,30.30,ENE,75,9.6,9.6,15,-99.99,,---,-99.99,VWS V14.01,2013-03-13 22:41:00,
2013-03-13 15:46:00,67.5,18.2,30.30,ENE,75,9.6,9.6,15,-99.99,,---,-99.99,VWS V14.01,2013-03-13 22:46:00,
2013-03-13 15:51:00,67.3,18.1,30.30,ENE,75,9.6,9.6,15,-99.99,,---,-99.99,VWS V14.01,2013-03-13 22:51:00,
2013-03-13 15:57:00,67.3,18.1,30.30,ENE,75,9.6,9.6,15,-99.99,,---,-99.99,VWS V14.01,2013-03-13 22:57:00,
2013-03-13 16:02:00,67.3,18.1,30.30,ENE,75,9.6,9.6,15,-99.99,,---,-99.99,VWS V14.01,2013-03-13 23:02:00,
2013-03-13 16:07:00,67.3,18.1,30.30,ENE,75,9.6,9.6,15,-99.99,,---,-99.99,VWS V14.01,2013-03-13 23:07:00,
2013-03-13 16:12:00,67.1,17.9,30.30,ENE,75,9.6,9.6,15,-99.99,,---,-99.99,VWS V14.01,2013-03-13 23:12:00,
2013-03-13 16:17:00,66.7,17.6,30.30,ENE,75,9.6,9.6,15,-99.99,,---,-99.99,VWS V14.01,2013-03-13 23:17:00,
2013-03-13 16:22:00,66.7,17.6,30.30,ENE,75,9.6,9.6,15,-99.99,,---,-99.99,VWS V14.01,2013-03-13 23:22:00,
2013-03-13 16:27:00,66.2,17.2,30.30,ENE,75,9.6,9.6,15,-99.99,,---,-99.99,VWS V14.01,2013-03-13 23:27:00,
2013-03-13 16:32:00,66.2,17.2,30.30,ENE,75,9.6,9.6,15,-99.99,,---,-99.99,VWS V14.01,2013-03-13 23:32:00,
2013-03-13 16:37:00,66.0,17.1,30.30,ENE,75,9.6,9.6,15,-99.99,,---,-99.99,VWS V14.01,2013-03-13 23:37:00,
2013-03-13 16:42:00,65.7,16.8,30.30,ENE,75,9.6,9.6,15,-99.99,,---,-99.99,VWS V14.01,2013-03-13 23:42:00,
2013-03-13 16:47:00,65.7,16.8,30.30,ENE,75,9.6,9.6,15,-99.99,,---,-99.99,VWS V14.01,2013-03-13 23:47:00,
2013-03-13 16:52:00,65.5,16.6,30.30,ENE,75,9.6,9.6,15,-99.99,,---,-99.99,VWS V14.01,2013-03-13 23:52:00,
2013-03-13 16:57:00,65.7,16.8,30.30,ENE,75,9.6,9.6,15,-99.99,,---,-99.99,VWS V14.01,2013-03-13 23:57:00,
2013-03-13 17:02:00,65.7,16.8,30.30,ENE,75,9.6,9.6,15,-99.99,,---,-99.99,VWS V14.01,2013-03-14 00:02:00,
2013-03-13 17:07:00,65.5,16.6,30.30,ENE,75,9.6,9.6,15,-99.99,,---,-99.99,VWS V14.01,2013-03-14 00:07:00,
2013-03-13 17:12:00,65.5,16.6,30.30,ENE,75,9.6,9.6,15,-99.99,,---,-99.99,VWS V14.01,2013-03-14 00:12:00,
2013-03-13 17:17:00,64.2,17.1,30.30,ENE,75,9.6,9.6,16,-99.99,,---,-99.99,VWS V14.01,2013-03-14 00:17:00,
2013-03-13 17:22:00,63.9,16.8,30.30,ENE,75,9.6,9.6,16,-99.99,,---,-99.99,VWS V14.01,2013-03-14 00:22:00,
2013-03-13 17:27:00,63.5,16.5,30.30,ENE,75,9.6,9.6,16,-99.99,,---,-99.99,VWS V14.01,2013-03-14 00:27:00,
2013-03-13 17:32:00,63.1,16.2,30.30,ENE,75,9.6,9.6,16,-99.99,,---,-99.99,VWS V14.01,2013-03-14 00:32:00,
2013-03-13 17:37:00,63.1,16.2,30.30,ENE,75,9.6,9.6,16,-99.99,,---,-99.99,VWS V14.01,2013-03-14 00:37:00,
2013-03-13 17:42:00,62.8,15.9,30.30,ENE,75,9.6,9.6,16,-99.99,,---,-99.99,VWS V14.01,2013-03-14 00:42:00,
2013-03-13 17:47:00,62.8,15.9,30.30,ENE,75,9.6,9.6,16,-99.99,,---,-99.99,VWS V14.01,2013-03-14 00:47:00,
2013-03-13 17:52:00,62.6,15.8,30.30,ENE,75,9.6,9.6,16,-99.99,,---,-99.99,VWS V14.01,2013-03-14 00:52:00,
2013-03-13 17:57:00,61.9,15.2,30.30,ENE,75,9.6,9.6,16,-99.99,,---,-99.99,VWS V14.01,2013-03-14 00:57:00,
2013-03-13 18:02:00,61.9,15.2,30.30,ENE,75,9.6,9.6,16,-99.99,,---,-99.99,VWS V14.01,2013-03-14 01:02:00,
2013-03-13 18:07:00,61.0,14.5,30.30,ENE,75,9.6,9.6,16,-99.99,,---,-99.99,VWS V14.01,2013-03-14 01:07:00,
2013-03-13 18:12:00,61.0,14.5,30.30,ENE,75,9.6,9.6,16,-99.99,,---,-99.99,VWS V14.01,2013-03-14 01:12:00,
2013-03-13 18:17:00,59.9,15.0,30.30,ENE,74,0.0,0.0,17,-99.99,,---,-99.99,VWS V14.01,2013-03-14 01:17:00,
2013-03-13 18:22:00,59.2,14.4,30.30,ENE,68,0.0,0.0,17,-99.99,,---,-99.99,VWS V14.01,2013-03-14 01:22:00,
2013-03-13 18:27:00,59.0,14.3,30.30,ENE,68,0.0,0.0,17,-99.99,,---,-99.99,VWS V14.01,2013-03-14 01:27:00,
2013-03-13 18:32:00,57.7,13.2,30.30,ENE,68,0.0,0.0,17,-99.99,,---,-99.99,VWS V14.01,2013-03-14 01:32:00,
2013-03-13 18:37:00,57.7,13.2,30.30,NE,55,0.0,0.0,17,-99.99,,---,-99.99,VWS V14.01,2013-03-14 01:37:00,
2013-03-13 18:43:00,56.3,12.1,30.30,NE,54,0.0,0.0,17,-99.99,,---,-99.99,VWS V14.01,2013-03-14 01:43:00,
2013-03-13 18:48:00,55.4,11.3,30.30,NE,49,0.0,0.0,17,-99.99,,---,-99.99,VWS V14.01,2013-03-14 01:48:00,
2013-03-13 18:53:00,55.2,12.5,30.30,NE,49,0.0,0.0,18,-99.99,,---,-99.99,VWS V14.01,2013-03-14 01:53:00,
2013-03-13 18:58:00,55.0,12.3,30.30,NE,49,0.0,0.0,18,-99.99,,---,-99.99,VWS V14.01,2013-03-14 01:58:00,
2013-03-13 19:03:00,55.0,12.3,30.30,NE,49,0.0,0.0,18,-99.99,,---,-99.99,VWS V14.01,2013-03-14 02:03:00,
2013-03-13 19:08:00,55.0,12.3,30.30,NE,49,0.0,0.0,18,-99.99,,---,-99.99,VWS V14.01,2013-03-14 02:08:00,
2013-03-13 19:13:00,54.5,11.9,30.30,NE,45,0.0,0.0,18,-99.99,,---,-99.99,VWS V14.01,2013-03-14 02:13:00,
2013-03-13 19:18:00,53.8,11.3,30.30,NE,34,0.0,0.0,18,-99.99,,---,-99.99,VWS V14.01,2013-03-14 02:18:00,
2013-03-13 19:23:00,53.8,11.3,30.30,NNE,32,0.0,0.0,18,-99.99,,---,-99.99,VWS V14.01,2013-03-14 02:23:00,
2013-03-13 19:28:00,53.8,11.3,30.30,NNE,31,0.0,0.0,18,-99.99,,---,-99.99,VWS V14.01,2013-03-14 02:28:00,
2013-03-13 19:33:00,53.8,11.3,30.30,NNE,31,0.0,0.0,18,-99.99,,---,-99.99,VWS V14.01,2013-03-14 02:33:00,
2013-03-13 19:38:00,53.8,11.3,30.30,NNE,30,0.0,0.0,18,-99.99,,---,-99.99,VWS V14.01,2013-03-14 02:38:00,
2013-03-13 19:43:00,52.5,10.2,30.33,NNE,30,0.0,0.0,18,-99.99,,---,-99.99,VWS V14.01,2013-03-14 02:43:00,
2013-03-13 19:48:00,52.3,10.1,30.33,NNE,28,0.0,0.0,18,-99.99,,---,-99.99,VWS V14.01,2013-03-14 02:48:00,
2013-03-13 19:53:00,52.3,10.1,30.33,NNE,28,0.0,0.0,18,-99.99,,---,-99.99,VWS V14.01,2013-03-14 02:53:00,
2013-03-13 19:58:00,52.3,10.1,30.33,NNE,28,0.0,0.0,18,-99.99,,---,-99.99,VWS V14.01,2013-03-14 02:58:00,
2013-03-13 20:03:00,52.3,10.1,30.33,NNE,30,0.0,0.0,18,-99.99,,---,-99.99,VWS V14.01,2013-03-14 03:03:00,
2013-03-13 20:08:00,52.2,10.0,30.33,NNE,28,0.0,0.0,18,-99.99,,---,-99.99,VWS V14.01,2013-03-14 03:08:00,
2013-03-13 20:13:00,52.2,10.0,30.33,NNE,28,0.0,0.0,18,-99.99,,---,-99.99,VWS V14.01,2013-03-14 03:13:00,
2013-03-13 20:18:00,52.2,10.0,30.33,NNE,28,0.0,0.0,18,-99.99,,---,-99.99,VWS V14.01,2013-03-14 03:18:00,
2013-03-13 20:23:00,52.2,10.0,30.33,NNE,28,0.0,0.0,18,-99.99,,---,-99.99,VWS V14.01,2013-03-14 03:23:00,
2013-03-13 20:28:00,51.3,10.4,30.33,NNE,28,0.0,0.0,19,-99.99,,---,-99.99,VWS V14.01,2013-03-14 03:28:00,
2013-03-13 20:33:00,51.3,10.4,30.33,NNE,28,0.0,0.0,19,-99.99,,---,-99.99,VWS V14.01,2013-03-14 03:33:00,
2013-03-13 20:38:00,51.3,10.4,30.33,NNE,28,0.0,0.0,19,-99.99,,---,-99.99,VWS V14.01,2013-03-14 03:38:00,
2013-03-13 20:43:00,51.3,10.4,30.33,NNE,28,0.0,0.0,19,-99.99,,---,-99.99,VWS V14.01,2013-03-14 03:43:00,
2013-03-13 20:48:00,51.3,10.4,30.33,NNE,28,0.0,0.0,19,-99.99,,---,-99.99,VWS V14.01,2013-03-14 03:48:00,
2013-03-13 20:53:00,51.1,10.3,30.33,NNE,28,0.0,0.0,19,-99.99,,---,-99.99,VWS V14.01,2013-03-14 03:53:00,
2013-03-13 20:58:00,51.1,10.3,30.33,NNE,31,0.0,0.0,19,-99.99,,---,-99.99,VWS V14.01,2013-03-14 03:58:00,
2013-03-13 21:00:00,50.5,9.8,30.33,NNE,31,0.0,0.0,19,-99.99,,---,-99.99,VWS V14.01,2013-03-14 04:00:00,
2013-03-13 21:05:00,50.5,9.8,30.33,NE,35,0.0,0.0,19,-99.99,,---,-99.99,VWS V14.01,2013-03-14 04:05:00,
2013-03-13 21:10:00,50.5,9.8,30.33,NE,35,0.0,0.0,19,-99.99,,---,-99.99,VWS V14.01,2013-03-14 04:10:00,
2013-03-13 21:15:00,50.5,9.8,30.33,NNE,19,0.0,0.0,19,-99.99,,---,-99.99,VWS V14.01,2013-03-14 04:15:00,
2013-03-13 21:20:00,50.5,9.8,30.33,NNE,16,0.0,0.0,19,-99.99,,---,-99.99,VWS V14.01,2013-03-14 04:20:00,
2013-03-13 21:25:00,50.5,9.8,30.33,NNE,16,0.0,0.0,19,-99.99,,---,-99.99,VWS V14.01,2013-03-14 04:25:00,
2013-03-13 21:30:00,50.5,9.8,30.33,NNE,16,0.0,0.0,19,-99.99,,---,-99.99,VWS V14.01,2013-03-14 04:30:00,
2013-03-13 21:35:00,50.5,9.8,30.33,NNE,15,0.0,0.0,19,-99.99,,---,-99.99,VWS V14.01,2013-03-14 04:35:00,
2013-03-13 21:40:00,52.5,10.2,30.36,NNE,15,0.0,0.0,18,-99.99,,---,-99.99,VWS V14.01,2013-03-14 04:40:00,
2013-03-13 21:45:00,52.5,10.2,30.36,NNE,15,0.0,0.0,18,-99.99,,---,-99.99,VWS V14.01,2013-03-14 04:45:00,
2013-03-13 21:50:00,52.5,10.2,30.36,NNE,14,0.0,0.0,18,-99.99,,---,-99.99,VWS V14.01,2013-03-14 04:50:00,
2013-03-13 21:55:00,52.5,10.2,30.36,NNE,14,0.0,0.0,18,-99.99,,---,-99.99,VWS V14.01,2013-03-14 04:55:00,
2013-03-13 22:00:00,52.2,10.0,30.36,NNE,14,0.0,0.0,18,-99.99,,---,-99.99,VWS V14.01,2013-03-14 05:00:00,
2013-03-13 22:05:00,52.2,10.0,30.36,North,10,0.0,0.0,18,-99.99,,---,-99.99,VWS V14.01,2013-03-14 05:05:00,
2013-03-13 22:10:00,52.2,10.0,30.36,North,2,0.0,0.0,18,-99.99,,---,-99.99,VWS V14.01,2013-03-14 05:10:00,
2013-03-13 22:16:00,52.5,10.2,30.36,North,357,0.0,0.0,18,-99.99,,---,-99.99,VWS V14.01,2013-03-14 05:16:00,
2013-03-13 22:21:00,52.5,10.2,30.36,North,357,0.0,0.0,18,-99.99,,---,-99.99,VWS V14.01,2013-03-14 05:21:00,
2013-03-13 22:26:00,53.1,10.7,30.36,North,357,0.0,0.0,18,-99.99,,---,-99.99,VWS V14.01,2013-03-14 05:26:00,
2013-03-13 22:31:00,53.1,10.7,30.36,North,357,0.0,0.0,18,-99.99,,---,-99.99,VWS V14.01,2013-03-14 05:31:00,
2013-03-13 22:36:00,53.1,10.7,30.36,North,2,0.0,0.0,18,-99.99,,---,-99.99,VWS V14.01,2013-03-14 05:36:00,
2013-03-13 22:41:00,53.1,10.7,30.36,North,357,0.0,0.0,18,-99.99,,---,-99.99,VWS V14.01,2013-03-14 05:41:00,
2013-03-13 22:46:00,53.1,10.7,30.36,North,357,0.0,0.0,18,-99.99,,---,-99.99,VWS V14.01,2013-03-14 05:46:00,
2013-03-13 22:51:00,53.1,10.7,30.36,North,0,0.0,0.0,18,-99.99,,---,-99.99,VWS V14.01,2013-03-14 05:51:00,
2013-03-13 22:56:00,53.1,10.7,30.36,North,0,0.0,0.0,18,-99.99,,---,-99.99,VWS V14.01,2013-03-14 05:56:00,
2013-03-13 23:01:00,53.1,10.7,30.36,North,353,0.0,0.0,18,-99.99,,---,-99.99,VWS V14.01,2013-03-14 06:01:00,
2013-03-13 23:06:00,53.1,10.7,30.36,NNW,344,0.0,0.0,18,-99.99,,---,-99.99,VWS V14.01,2013-03-14 06:06:00,
2013-03-13 23:11:00,53.2,10.9,30.36,NNW,345,0.0,0.0,18,-99.99,,---,-99.99,VWS V14.01,2013-03-14 06:11:00,
2013-03-13 23:16:00,53.2,10.9,30.36,NNW,338,0.0,0.0,18,-99.99,,---,-99.99,VWS V14.01,2013-03-14 06:16:00,
2013-03-13 23:21:00,53.2,10.9,30.36,NW,325,0.0,0.0,18,-99.99,,---,-99.99,VWS V14.01,2013-03-14 06:21:00,
2013-03-13 23:26:00,53.2,10.9,30.36,NNW,330,0.0,0.0,18,-99.99,,---,-99.99,VWS V14.01,2013-03-14 06:26:00,
2013-03-13 23:31:00,52.7,10.4,30.36,NNW,337,0.0,0.0,18,-99.99,,---,-99.99,VWS V14.01,2013-03-14 06:31:00,
2013-03-13 23:37:00,52.9,10.6,30.36,NNW,336,0.0,0.0,18,-99.99,,---,-99.99,VWS V14.01,2013-03-14 06:37:00,
2013-03-13 23:41:00,52.9,10.6,30.36,NNW,329,0.0,0.0,18,-99.99,,---,-99.99,VWS V14.01,2013-03-14 06:41:00,
2013-03-13 23:47:00,52.9,10.6,30.36,NNW,339,0.0,0.0,18,-99.99,,---,-99.99,VWS V14.01,2013-03-14 06:47:00,
2013-03-13 23:52:00,52.9,10.6,30.36,NNW,346,0.0,0.0,18,-99.99,,---,-99.99,VWS V14.01,2013-03-14 06:52:00,
2013-03-13 23:57:00,52.9,10.6,30.36,North,349,0.0,0.0,18,-99.99,,---,-99.99,VWS V14.01,2013-03-14 06:57:00,